FW6519 Weather Reports


Display with metric or nautical units.
time (UTC)temp
F
wind
direction
speed
MPH
gust
MPH
rain 1hr
in
rain 24hr
in
rain mn
in
humidity
%
barometer
mb
20260503232019 55 251 1.0 5.0 0.00 0.00 0.00 41 1015.7
20260503231523 55 220 1.0 7.0 0.00 0.00 0.00 42 1015.7
20260503231019 55 225 1.0 5.0 0.00 0.00 0.00 39 1015.7
20260503230522 56 248 1.0 11.0 0.00 0.00 0.00 37 1015.8
20260503230018 56 239 4.0 11.0 0.00 0.00 0.00 36 1015.8
20260503225521 56 243 4.0 8.0 0.00 0.00 0.00 35 1015.9
20260503225022 57 273 3.0 5.0 0.00 0.00 0.00 36 1015.7
20260503224519 57 269 2.0 5.0 0.00 0.00 0.00 36 1015.9
20260503224019 57 188 1.0 8.0 0.00 0.00 0.00 38 1015.9
20260503223519 57 254 4.0 8.0 0.00 0.00 0.00 36 1016.0
20260503223019 57 322 3.0 8.0 0.00 0.00 0.00 36 1015.9
20260503222518 57 282 2.0 9.0 0.00 0.00 0.00 36 1015.9
20260503222017 57 186 3.0 11.0 0.00 0.00 0.00 35 1016.0
20260503221522 57 216 5.0 13.0 0.00 0.00 0.00 35 1016.0
20260503221017 57 273 6.0 13.0 0.00 0.00 0.00 35 1015.9
20260503220519 57 257 2.0 10.0 0.00 0.00 0.00 37 1015.9
20260503220022 58 270 3.0 10.0 0.00 0.00 0.00 37 1016.0
20260503215515 58 240 4.0 10.0 0.00 0.00 0.00 35 1015.9
20260503215014 58 230 5.0 9.0 0.00 0.00 0.00 35 1015.7
20260503214521 58 229 3.0 6.0 0.00 0.00 0.00 34 1015.7
20260503214014 57 296 2.0 9.0 0.00 0.00 0.00 35 1015.8
20260503213514 57 242 3.0 9.0 0.00 0.00 0.00 37 1015.8
20260503213013 57 249 1.0 9.0 0.00 0.00 0.00 35 1015.8
20260503212513 57 254 3.0 11.0 0.00 0.00 0.00 36 1015.8
20260503212011 57 233 4.0 11.0 0.00 0.00 0.00 34 1015.9
20260503211512 58 242 4.0 9.0 0.00 0.00 0.00 35 1015.9
20260503211011 58 182 0.0 6.0 0.00 0.00 0.00 36 1015.9
20260503210512 58 260 2.0 7.0 0.00 0.00 0.00 37 1016.0
20260503210110 57 268 2.0 10.0 0.00 0.00 0.00 36 1016.0
20260503205509 57 326 2.0 10.0 0.00 0.00 0.00 37 1016.1
20260503205008 57 217 4.0 9.0 0.00 0.00 0.00 40 1016.1
20260503204516 57 73 2.0 8.0 0.00 0.00 0.00 40 1016.1
20260503204006 57 219 3.0 11.0 0.00 0.00 0.00 38 1016.3
20260503203506 57 229 5.0 11.0 0.00 0.00 0.00 38 1016.4
20260503203005 57 250 4.0 10.0 0.00 0.00 0.00 38 1016.4
20260503202504 57 265 4.0 11.0 0.00 0.00 0.00 40 1016.5
20260503202003 56 241 4.0 11.0 0.00 0.00 0.00 36 1016.6
20260503201506 57 243 5.0 10.0 0.00 0.00 0.00 36 1016.5
20260503201003 56 153 4.0 9.0 0.00 0.00 0.00 39 1016.6
20260503200501 56 254 2.0 8.0 0.00 0.00 0.00 39 1016.7
20260503200006 56 202 2.0 10.0 0.00 0.00 0.00 37 1016.9
20260503195501 56 140 5.0 10.0 0.00 0.00 0.00 37 1017.2
20260503195101 56 13 3.0 10.0 0.00 0.00 0.00 39 1017.2
20260503194604 56 246 2.0 8.0 0.00 0.00 0.00 41 1017.2
20260503194100 55 70 4.0 8.0 0.00 0.00 0.00 39 1017.4
20260503193600 56 250 4.0 15.0 0.00 0.00 0.00 37 1017.4
20260503193501 56 238 5.0 15.0 0.00 0.00 0.00 36 1017.5
20260503193100 56 206 3.0 14.0 0.00 0.00 0.00 39 1017.6
20260503192558 56 198 7.0 15.0 0.00 0.00 0.00 39 1017.7
20260503192058 56 171 4.0 15.0 0.00 0.00 0.00 36 1017.7
20260503191557 55 219 2.0 9.0 0.00 0.00 0.00 40 1017.6
20260503191058 55 214 3.0 11.0 0.00 0.00 0.00 43 1017.7
20260503190557 55 180 3.0 14.0 0.00 0.00 0.00 37 1017.8
20260503190056 55 198 5.0 14.0 0.00 0.00 0.00 39 1017.9
20260503185556 55 43 4.0 9.0 0.00 0.00 0.00 37 1017.8
20260503185059 55 279 2.0 9.0 0.00 0.00 0.00 37 1017.9
20260503184604 55 185 3.0 10.0 0.00 0.00 0.00 43 1018.1
20260503184055 55 164 2.0 16.0 0.00 0.00 0.00 45 1018.2
20260503183554 54 244 6.0 16.0 0.00 0.00 0.00 38 1018.3
20260503183055 54 250 4.0 11.0 0.00 0.00 0.00 41 1018.2
20260503182556 54 241 5.0 10.0 0.00 0.00 0.00 38 1018.2
20260503182052 54 187 3.0 11.0 0.00 0.00 0.00 42 1018.3
20260503181553 54 71 4.0 11.0 0.00 0.00 0.00 42 1018.4
20260503181053 53 279 1.0 10.0 0.00 0.00 0.00 43 1018.4
20260503180552 54 78 2.0 11.0 0.00 0.00 0.00 42 1018.4
20260503180104 54 232 6.0 11.0 0.00 0.00 0.00 42 1018.5
20260503175551 53 27 1.0 6.0 0.00 0.00 0.00 40 1018.5
20260503175050 53 5 2.0 10.0 0.00 0.00 0.00 42 1018.6
20260503174550 52 51 2.0 10.0 0.00 0.00 0.00 47 1018.7
20260503174052 52 91 1.0 9.0 0.00 0.00 0.00 40 1018.7
20260503173549 53 33 4.0 10.0 0.00 0.00 0.00 44 1018.7
20260503173054 53 286 3.0 10.0 0.00 0.00 0.00 45 1018.9
20260503172548 53 217 2.0 10.0 0.00 0.00 0.00 46 1018.9
20260503172046 53 219 4.0 10.0 0.00 0.00 0.00 43 1018.9
20260503171545 52 360 2.0 10.0 0.00 0.00 0.00 45 1018.9
20260503171044 51 246 1.0 8.0 0.00 0.00 0.00 44 1018.9
20260503170546 51 292 3.0 12.0 0.00 0.00 0.00 45 1019.0
20260503150530 47 208 3.0 12.0 0.00 0.00 0.00 55 1020.1
20260503131009 42 209 2.0 7.0 0.00 0.00 0.00 74 1020.0
20260503130507 41 200 2.0 7.0 0.00 0.00 0.00 76 1020.0
20260503110549 30 42 0.0 0.0 0.00 0.00 0.00 93 1018.9
20260503081530 33 42 0.0 0.0 0.00 0.00 0.00 90 1017.6
20260503081029 33 42 0.0 0.0 0.00 0.00 0.00 90 1017.6
20260503080529 33 42 0.0 0.0 0.00 0.00 0.00 90 1017.6
20260503072522 34 42 0.0 0.0 0.00 0.00 0.00 90 1017.2
20260503072021 34 42 0.0 0.0 0.00 0.00 0.00 90 1017.2
20260503071521 34 42 0.0 0.0 0.00 0.00 0.00 90 1017.1
20260503071021 34 42 0.0 0.0 0.00 0.00 0.00 90 1017.1
20260503070520 34 42 0.0 0.0 0.00 0.00 0.00 90 1017.1
20260503055013 36 42 0.0 0.0 0.00 0.00 0.00 85 1017.0
20260503054512 36 42 0.0 0.0 0.00 0.00 0.00 85 1017.0
20260503054012 36 42 0.0 0.0 0.00 0.00 0.00 85 1017.0
20260503053513 36 42 0.0 0.0 0.00 0.00 0.00 85 1017.0
20260503053011 36 42 0.0 1.0 0.00 0.00 0.00 85 1016.9
20260503052511 36 42 0.0 1.0 0.00 0.00 0.00 85 1016.9
20260503052011 36 40 0.0 1.0 0.00 0.00 0.00 85 1016.8
20260503051511 36 38 0.0 1.0 0.00 0.00 0.00 85 1016.9
20260503051009 36 12 0.0 0.0 0.00 0.00 0.00 84 1016.9
20260503050508 36 12 0.0 0.0 0.00 0.00 0.00 84 1016.9
20260503050009 36 12 0.0 0.0 0.00 0.00 0.00 84 1016.9
20260503045509 36 12 0.0 0.0 0.00 0.00 0.00 84 1016.9
20260503045011 36 12 0.0 0.0 0.00 0.00 0.00 83 1016.9
20260503044508 36 12 0.0 0.0 0.00 0.00 0.00 83 1016.8
20260503044007 36 12 0.0 0.0 0.00 0.00 0.00 82 1016.8
20260503043506 37 12 0.0 0.0 0.00 0.00 0.00 81 1016.8
20260503043020 37 12 0.0 0.0 0.00 0.00 0.00 81 1016.8
20260503042506 37 12 0.0 0.0 0.00 0.00 0.00 80 1016.8
20260503042003 37 12 0.0 0.0 0.00 0.00 0.00 80 1016.9
20260503041502 37 12 0.0 0.0 0.00 0.00 0.00 80 1016.8
20260503041002 37 12 0.0 0.0 0.00 0.00 0.00 80 1016.8
20260503040501 38 12 0.0 1.0 0.00 0.00 0.00 79 1016.7
20260503040103 38 12 0.0 1.0 0.00 0.00 0.00 78 1016.7
20260503035559 38 12 0.0 0.0 0.00 0.00 0.00 78 1016.7
20260503035059 38 12 0.0 0.0 0.00 0.00 0.00 77 1016.8
20260503034559 38 12 0.0 0.0 0.00 0.00 0.00 77 1016.7
20260503034101 39 12 0.0 1.0 0.00 0.00 0.00 76 1016.8
20260503033558 39 12 0.0 1.0 0.00 0.00 0.00 76 1016.8
20260503033058 39 12 0.0 2.0 0.00 0.00 0.00 76 1016.8
20260503032558 39 15 0.0 2.0 0.00 0.00 0.00 75 1016.8
20260503032058 39 14 0.0 0.0 0.00 0.00 0.00 74 1016.8
20260503031559 40 14 0.0 0.0 0.00 0.00 0.00 74 1016.7
20260503031058 40 14 0.0 0.0 0.00 0.00 0.00 73 1016.7
20260503030558 40 14 0.0 0.0 0.00 0.00 0.00 72 1016.8
20260503025557 41 14 0.0 2.0 0.00 0.00 0.00 72 1016.8
20260503025059 41 14 0.0 2.0 0.00 0.00 0.00 70 1016.8
20260503024558 42 15 0.0 3.0 0.00 0.00 0.00 70 1016.8
20260503024057 42 15 0.0 5.0 0.00 0.00 0.00 69 1016.7
20260503023557 42 11 1.0 5.0 0.00 0.00 0.00 68 1016.7
20260503023102 42 355 2.0 4.0 0.00 0.00 0.00 68 1016.7
20260503022555 42 355 1.0 3.0 0.00 0.00 0.00 68 1016.7
20260503022056 42 12 1.0 6.0 0.00 0.00 0.00 68 1016.7
20260503021601 43 15 2.0 6.0 0.00 0.00 0.00 66 1016.6
20260503021054 43 5 1.0 5.0 0.00 0.00 0.00 68 1016.6
20260503020554 43 38 2.0 5.0 0.00 0.00 0.00 66 1016.5
20260503020059 42 40 1.0 5.0 0.00 0.00 0.00 67 1016.5
20260503015553 42 5 1.0 5.0 0.00 0.00 0.00 66 1016.4
20260503015053 42 33 0.0 3.0 0.00 0.00 0.00 67 1016.4
20260503014556 43 17 0.0 4.0 0.00 0.00 0.00 66 1016.3
20260503014051 43 5 0.0 4.0 0.00 0.00 0.00 65 1016.3
20260503013551 43 5 1.0 4.0 0.00 0.00 0.00 64 1016.2
20260503013051 43 44 1.0 4.0 0.00 0.00 0.00 63 1016.2
20260503012550 43 17 1.0 4.0 0.00 0.00 0.00 64 1016.1
20260503012050 43 336 1.0 4.0 0.00 0.00 0.00 64 1016.2
20260503011551 44 5 0.0 2.0 0.00 0.00 0.00 63 1016.1
20260503011049 44 5 0.0 5.0 0.00 0.00 0.00 62 1016.0
20260503010549 44 33 1.0 4.0 0.00 0.00 0.00 61 1015.9
20260503010058 44 59 2.0 4.0 0.00 0.00 0.00 60 1015.8
20260503005549 44 29 0.0 5.0 0.00 0.01 0.00 60 1015.7
20260503005049 45 355 2.0 5.0 0.00 0.01 0.00 59 1015.6
20260503004600 45 360 2.0 8.0 0.00 0.01 0.00 58 1015.5
20260503004050 45 50 3.0 9.0 0.00 0.01 0.00 58 1015.5
20260503003548 46 336 3.0 9.0 0.00 0.01 0.00 57 1015.4
20260503003103 46 25 1.0 7.0 0.00 0.01 0.00 57 1015.4
20260503002549 46 78 1.0 5.0 0.00 0.01 0.00 56 1015.3
20260503002047 46 5 2.0 5.0 0.00 0.01 0.00 55 1015.2
20260503001602 46 355 2.0 5.0 0.00 0.01 0.00 56 1015.1
20260503001049 46 329 0.0 8.0 0.00 0.01 0.00 55 1015.1
20260503000546 46 53 2.0 8.0 0.00 0.01 0.00 53 1015.0
20260503000047 47 340 2.0 6.0 0.00 0.01 0.00 53 1014.9
20260502235546 47 38 1.0 9.0 0.00 0.02 0.00 53 1014.9
20260502235046 47 26 1.0 9.0 0.00 0.02 0.00 53 1014.8
20260502234646 47 355 3.0 10.0 0.00 0.02 0.00 51 1014.8
20260502234047 48 41 2.0 10.0 0.00 0.02 0.00 50 1014.7
20260502233546 48 50 2.0 6.0 0.00 0.02 0.00 49 1014.7
20260502233047 48 259 1.0 3.0 0.00 0.02 0.00 48 1014.6
20260502232546 48 326 0.0 4.0 0.00 0.02 0.00 47 1014.5